Location: Mactaquac Provincial Park
(45.9573°N, 66.8897°W)
Time: 08:43:14
(UTC-03:00)

CENTAUR R/B - Visible Passes

Search period start: 24 April 2014 00:00
Search period end: 04 May 2014 00:00
Orbit: 909 x 1280 km, 63.5° (Epoch: 14 April)

Date Brightness Start Highest point End Pass type
(mag) Time Alt. Az. Time Alt. Az. Time Alt. Az.
24 Apr 3.4 00:43:24 10° NW 00:50:33 46° WSW 00:50:36 46° WSW visible
24 Apr 3.8 22:04:26 10° NNW 22:11:18 40° NE 22:16:49 17° E visible
24 Apr 3.0 23:55:04 10° NW 00:02:34 69° WSW 00:04:00 58° S visible
25 Apr 4.8 01:47:57 10° WNW 01:51:11 15° W 01:51:11 15° W visible
25 Apr 4.2 21:16:19 10° NNW 21:22:39 30° NNE 21:29:21 10° E visible
25 Apr 2.9 23:06:53 10° NW 23:14:26 83° NE 23:17:25 43° SE visible
26 Apr 4.2 00:58:29 10° WNW 01:04:34 26° WSW 01:04:36 26° WSW visible
26 Apr 3.3 22:18:47 10° NW 22:26:09 59° NE 22:30:53 25° ESE visible
27 Apr 3.6 00:09:47 10° NW 00:16:47 41° WSW 00:18:04 39° SW visible
27 Apr 3.7 21:30:43 10° NNW 21:37:42 43° NE 21:44:22 13° ESE visible
27 Apr 3.2 23:21:23 10° NW 23:28:50 63° WSW 23:31:34 42° S visible
28 Apr 4.8 01:14:52 10° WNW 01:18:20 14° WSW 01:18:46 14° WSW visible
28 Apr 3.0 22:33:11 10° NW 22:40:45 90° NE 22:45:06 30° SE visible
29 Apr 4.4 00:25:01 10° WNW 00:30:45 23° WSW 00:32:18 22° SW visible
29 Apr 3.2 21:45:04 10° NW 21:52:30 64° NE 21:58:41 18° SE visible
29 Apr 3.9 23:36:10 10° NW 23:43:00 37° WSW 23:45:53 28° SSW visible
30 Apr 3.6 20:56:59 10° NNW 21:04:05 46° NE 21:11:36 10° ESE visible
30 Apr 3.4 22:47:43 10° NW 22:55:06 57° WSW 22:59:30 27° S visible
01 May 5.0 00:42:05 10° W 00:44:27 12° WSW 00:46:42 10° WSW visible
01 May 3.0 21:59:29 10° NW 22:07:02 83° SW 22:13:10 19° SSE visible
01 May 4.7 23:51:35 10° WNW 23:56:55 21° WSW 00:00:23 16° SW visible
02 May 3.1 21:11:21 10° NW 21:18:50 70° NE 21:26:45 10° SE visible
02 May 4.1 23:02:35 10° NW 23:09:13 33° WSW 23:14:06 18° SSW visible
03 May 3.6 22:14:04 10° NW 22:21:21 51° WSW 22:27:53 15° S visible
